Torna al catalogo

COSMOS 2491 DEB

LostPO
NORAD 45109·DEBRIS·🇷🇺 Russia

Lanciato Dec 25, 2013 da Plesetsk Cosmodrome

Loading…

Prossimi Passaggi (prossime 24 ore)

TLE

ObsoletoSource: Space-Track

Epoca: Feb 29, 2020, 01:08 UTC

1 45109U 13076Y   20060.04783337 -.00001757  00000-0 -16171-1 0  9998
2 45109  82.4270 164.7354 0138206 179.2211 180.9097 12.21968326  5657

Traccia COSMOS 2491 DEB in tempo reale con AllMySat

Download on the App Store